Location: Palmerston North
(40.3500°S, 175.6170°E)
Time: 22:03:31
(UTC+13:00)

ISS - Pass Details

Date: 24 October 2019
Orbit: 412 x 421 km, 51.6° (Epoch: 13 November)

Event Time Altitude Azimuth Distance (km) Brightness Sun altitude
Rises 21:40:15 0° 250° (WSW) 2,378 1.4 -20.2°
Reaches altitude 10° 21:43:10 10° 222° (SW) 1,518 0.2 -20.6°
Maximum altitude 21:45:02 14° 189° (S) 1,307 -0.7 -20.9°
Drops below altitude 10° 21:46:53 10° 156° (SSE) 1,523 -0.8 -21.2°
Enters shadow 21:47:57 - 143° (SE) 1,791 -0.5 -21.3°
